sat.trackr.live / text

‹ back to catalog

STARLINK-5181

NORAD 54070 · 2022-136V

PAYLOAD ACTIVE UNKNOWN

§ Identity

Operator
Country
US
Launch date
2022-10-20
Launch site
AFETR
Launch vehicle
Mass (kg)
RCS (m²)

Purposes: comms

External: N2YO · Heavens-Above · Gunter

§ Orbital elements

Epoch: 2026-09-20T04:18:45.520128Z

Period
93.79 min
Inclination
53.1608°
Eccentricity
0.0001329
Mean motion
15.35402992 rev/d
Perigee alt
458.8 km
Apogee alt
460.6 km
Semi-major
6,837.9 km
B*
2.4788e-5
RAAN
179.2553°
Arg perigee
93.6757°
Mean anomaly
266.4398°
Rev number
21,636

§ Raw data

STARLINK-51811 54070U 22136V   26263.17969352  .00000484  00000+0  24788-4 0  99992 54070  53.1608 179.2553 0001329  93.6757 266.4398 15.35402992216361

JSON: /api/v1/satellites/54070 · /tle

For live sub-satellite position, see the globe view (requires WebGL).

§ Visibility from observer

Set your observer location to see the next 7 days of passes ≥ 10°. The values pass through the URL so the page stays shareable.

No JS? Fill the form by hand. The geolocation button needs JavaScript.